Location: Campbell River
(50.0170°N, 125.2500°W)
Time: 11:12:57
(UTC-08:00)

Daily predictions for brighter satellites

Satellite Brightness Start Highest point End
(mag) Time Altitude Azimuth Time Altitude Azimuth Time Altitude Azimuth
USA 215 3.7 18:09:58 10° ENE 18:16:23 61° NNW 18:22:47 10° W
Cosmos 1461 3.5 18:16:21 10° NNW 18:20:03 35° NE 18:23:46 10° ESE
Cosmos 1697 Rocket 3.9 18:16:09 10° NW 18:21:35 48° WSW 18:26:59 10° S
Cosmos 2360 Rocket 3.2 18:18:12 10° NNW 18:22:58 27° NE 18:27:44 10° E
Meteor 1-18 Rocket 4.5 18:17:57 10° N 18:23:19 46° ENE 18:28:39 10° SE
Cosmos 1825 3.2 18:19:39 10° SSW 18:23:22 50° WNW 18:27:07 10° N
CZ-2C R/B 4.4 18:20:00 10° SSW 18:24:05 32° W 18:28:13 10° NNW
Cosmos 1980 Rocket 2.6 18:18:35 10° NNW 18:24:16 72° WSW 18:29:55 10° SSE
SKYMED 2 3.6 18:21:17 10° NNE 18:25:37 60° E 18:29:54 10° S
Cosmos 1975 Rocket 3.0 18:22:00 10° N 18:26:19 63° ENE 18:30:36 10° SSE
SJ-6B 3.3 18:23:06 10° SE 18:26:52 40° ENE 18:30:37 10° N
Cosmos 2219 Rocket 4.1 18:24:20 10° N 18:27:01 13° NNE 18:29:42 10° NE
Cosmos 1992 Rocket 4.0 18:23:28 10° NNW 18:28:43 74° ENE 18:33:57 10° SSE
Cosmos 1400 Rocket 4.4 18:26:55 10° SW 18:30:43 40° WNW 18:34:36 10° N
Thor Agena Rocket 3.6 18:25:59 10° NNE 18:31:07 82° WNW 18:36:09 10° SSW
ERBS 3.8 18:29:10 10° WNW 18:32:28 40° SW 18:35:44 10° SSE
Cosmos 1484 Rocket 4.1 18:33:31 10° S 18:37:22 47° W 18:41:12 10° NNW
Cosmos 44 3.0 18:33:42 10° NW 18:38:16 82° NE 18:42:37 10° SE
NOSS 2-2 (C) 4.3 18:35:05 10° S 18:38:48 33° ESE 18:43:05 10° NE
Sich 1 Rocket 3.9 18:34:50 10° SSW 18:39:23 78° W 18:44:01 10° N
Meteor 1-14 Rocket 4.4 18:33:35 10° S 18:39:24 58° E 18:45:17 10° NNE
Cosmos 2333 Rocket 4.1 18:37:34 10° N 18:40:37 14° NNE 18:43:40 10° ENE
SL-08 R/B 4.5 18:34:42 10° S 18:40:44 66° E 18:46:53 10° NNE
METEOR-M 4.1 18:35:25 10° SSE 18:40:45 76° ENE 18:46:07 10° NNW
Cosmos 1536 Rocket 4.2 18:40:50 10° N 18:44:57 35° ENE 18:49:03 10° SE
FengYun 1-2 T 4.4 18:39:47 10° SE 18:45:02 49° ENE 18:50:20 10° N
Timation 2 Rocket 4.4 18:38:36 10° SW 18:45:28 78° WNW 18:52:25 10° NNE
DMSP B5D1-3 4.5 18:41:10 10° NNE 18:46:18 68° ESE 18:51:25 10° S
Nadezhda 1 Rocket 3.9 18:40:20 10° N 18:46:28 72° ENE 18:52:31 10° SSE
Resurs 01 Rocket 2.1 18:42:34 10° SE 18:46:38 37° ENE 18:50:43 10° N
GEOS 3 Rocket 4.2 18:42:09 10° NE 18:47:00 37° ESE 18:51:52 10° S
NOAA 12 4.1 18:42:48 10° SSE 18:48:08 88° ENE 18:53:31 10° NNW
RESURS DK-1 3.1 18:45:38 10° SW 18:49:43 56° NW 18:53:51 10° NNE
Okean 1 3.7 18:46:46 10° N 18:50:40 43° ENE 18:54:33 10° SSE
BREEZE-M DEB (TANK) 2.7 18:48:54 10° W 18:51:25 79° S 18:55:42 14° ESE
Cosmos 2181 Rocket 4.4 18:46:03 10° N 18:51:50 39° ENE 18:57:39 10° SE
SL-16 R/B 2.2 18:47:33 10° NNW 18:53:16 78° ENE 18:58:57 10° SSE
Cosmos 2082 Rocket 3.0 18:48:01 10° SW 18:53:35 53° NW 18:59:12 10° NNE
FREGAT/IRIS 2.5 18:53:20 10° SSE 18:56:25 83° ENE 18:59:32 10° N
Meteor 1-20 Rocket 4.4 18:54:46 10° S 19:00:24 53° E 19:06:05 10° NNE
DNEPR-1 R/B 3.4 18:55:59 10° NW 19:00:25 89° NE 19:04:36 10° SE
Cosmos 1340 3.2 19:01:35 10° N 19:05:09 36° ENE 19:08:17 12° SE
USA 186 3.3 19:06:01 18° NE 19:06:01 18° NE 19:07:36 10° NNE
Cosmos 1346 Rocket 4.4 19:01:44 10° NNW 19:05:28 39° W 19:09:07 10° SSW
Meteor 1-28 Rocket 3.8 19:03:23 10° N 19:07:09 61° WNW 19:10:54 10° SSW
Cosmos 1782 Rocket 3.9 19:03:02 10° SSW 19:07:27 71° WNW 19:11:56 10° N
Spot 2 Rocket 3.5 19:05:10 10° SSE 19:10:08 62° ENE 19:15:10 10° N
CZ-2D R/B 3.7 19:07:46 13° SE 19:10:53 38° ENE 19:14:27 10° N
Cosmos 2322 Rocket 2.3 19:07:44 10° NNW 19:13:22 77° WSW 19:18:58 10° SSE
COSMO-SKYMED 1 3.6 19:09:24 10° N 19:13:36 47° WNW 19:17:45 10° SW
HJ-1C 3.3 19:11:28 10° SSE 19:14:51 83° ENE 19:18:15 10° NNW
Genesis I 4.5 19:11:45 10° NNW 19:15:06 25° NNE 19:16:04 23° ENE
Resurs 1-3 3.6 19:12:06 10° SSE 19:16:24 59° ENE 19:20:44 10° N
Cosmos 1238 Rocket 2.7 19:13:22 10° N 19:16:30 37° ENE 19:16:53 35° E
Okean 2 Rocket 3.3 19:13:08 10° SSW 19:17:36 74° WNW 19:22:04 10° N
Cosmos 2322 3.9 19:15:13 10° NNW 19:20:50 52° NE 19:24:35 21° ESE
ALOS 2.3 19:19:03 10° SSE 19:23:44 83° WSW 19:28:26 10° NNW
Cosmos 1709 Rocket 4.0 19:17:54 10° S 19:23:59 57° E 19:30:01 10° NNE
Cosmos 1300 Rocket 4.1 19:21:25 10° SSE 19:25:25 35° E 19:29:28 10° NNE
Meteor 1-25 Rocket 4.2 19:20:07 10° S 19:25:44 90° ESE 19:31:28 10° NNE
H-2A R/B 2.5 19:22:15 10° SSE 19:25:56 72° ENE 19:29:40 10° N
Envisat 3.7 19:24:57 27° E 19:26:21 32° ENE 19:30:49 10° N
Meteor 2-4 Rocket 4.0 19:23:10 10° N 19:28:37 44° ENE 19:32:00 21° SE
COSMOS 2428 3.3 19:25:05 10° NNW 19:30:21 37° NE 19:32:15 29° E
Cosmos 1812 3.9 19:28:17 10° NNW 19:31:59 44° W 19:35:40 10° SSW
Meteor 1-11 Rocket 4.1 19:26:40 10° SSE 19:32:03 42° E 19:37:33 10° NNE
Spot 1 3.9 19:30:35 20° SSE 19:33:16 62° ENE 19:37:21 10° N
Cosmos 1833 Rocket 4.3 19:30:15 10° WSW 19:35:17 33° NW 19:40:21 10° NNE
Cosmos 2151 Rocket 3.5 19:31:02 10° S 19:35:32 84° E 19:40:06 10° NNE
deb Kosmos-1763 4.0 19:33:17 10° SSW 19:37:04 68° ESE 19:38:50 29° NE
ATLAS CENTAUR R/B 3.3 19:33:33 10° W 19:37:25 28° NW 19:40:59 10° NNE
USA 229 DEB 4.1 19:30:36 10° NW 19:37:26 48° NNE 19:40:45 29° E
USA 229 4.2 19:30:42 10° NW 19:37:32 48° NNE 19:40:50 29° E
Cosmos 1818 3.9 19:40:07 10° S 19:45:11 41° ESE 19:46:01 39° E
ERS-1 Rocket 3.8 19:45:49 30° NE 19:45:49 30° NE 19:49:53 10° N
FENGYUN 3A 4.2 19:41:30 10° S 19:46:50 59° W 19:52:13 10° NNW
Cosmos 2237 Rocket 3.5 19:43:13 10° NNW 19:47:42 23° NE 19:48:10 23° NE
NOSS 2-2 (E) 4.0 19:47:56 10° SW 19:52:10 65° NW 19:55:24 22° NE
Okean 1-7 Rocket 3.6 19:48:55 10° N 19:53:28 61° ENE 19:54:07 54° ESE
ATLAS 2AS CENTAUR R/B 4.3 19:47:24 10° WNW 19:54:27 31° N 19:59:21 18° NE
Tiangong 2 3.4 19:53:25 10° SW 19:55:08 16° SSW 19:55:08 16° SSW
USA 215 3.8 19:55:40 28° ENE 19:58:53 49° N 20:05:08 10° WNW
Cosmos 1461 4.2 19:55:33 10° NW 19:59:12 35° WSW 20:01:33 19° S
Cosmos 1939 Rocket 4.2 20:07:23 27° N 20:07:23 27° N 20:09:25 10° N
Cosmos 2360 Rocket 2.3 20:01:53 10° NNW 20:07:33 73° WSW 20:10:38 28° SSE
Cosmos 1570 Rocket 3.9 20:02:29 10° NNW 20:07:45 73° ENE 20:08:36 60° ESE
Helios 1A 3.3 20:05:40 26° S 20:07:52 64° WSW 20:12:01 10° NNW
NOSS 2-2 (D) 4.3 20:07:49 10° WSW 20:12:00 53° NW 20:14:13 29° NNE
NOSS 3-1 (C) 4.4 20:05:40 10° NW 20:12:25 43° NNE 20:14:25 37° ENE
Cosmos 2219 Rocket 2.7 20:07:15 10° NNW 20:12:24 42° NE 20:12:24 42° NE
Cosmos 676 Rocket 3.9 20:09:45 10° SSW 20:14:57 90° WNW 20:18:46 19° NNE
Cosmos 407 Rocket 3.8 20:11:14 10° SW 20:16:27 66° WNW 20:21:46 10° NNE
SL-16 R/B 3.9 20:13:07 10° N 20:16:42 19° NNE 20:16:42 19° NNE
Resurs 01 Rocket 3.6 20:19:23 10° SSW 20:23:12 28° W 20:27:01 10° NW
GEOS 3 Rocket 4.2 20:22:27 27° NNE 20:25:12 56° NW 20:30:20 10° WSW
Cosmos 1833 4.0 20:20:22 10° SSW 20:26:03 75° ESE 20:26:07 75° ESE
Cosmos 2333 Rocket 2.8 20:20:58 10° NNW 20:25:51 43° NNE 20:25:51 43° NNE
Cosmos 1025 Rocket 3.6 20:23:01 10° NNW 20:26:23 52° NNW 20:26:23 52° NNW
Cosmos 2208 Rocket 4.0 20:22:37 10° NNW 20:28:07 87° WSW 20:28:40 73° S
Cosmos 1980 4.5 20:39:53 10° NNW 20:43:59 40° NNE 20:43:59 40° NNE
Cosmos 2327 Rocket 4.4 20:41:57 10° S 20:48:10 86° WNW 20:54:32 10° N
H-2A R/B 4.0 21:00:37 20° N 21:00:37 20° N 21:02:27 10° N
NOSS 0 Rocket 4.2 20:52:53 10° NNW 20:58:03 61° N 20:58:03 61° N
Cosmos 2184 Rocket 4.3 20:58:14 10° SSW 21:04:32 66° WNW 21:10:48 10° N
Envisat 4.0 21:05:08 43° W 21:05:14 43° W 21:10:06 10° NNW
Cosmos 2074 Rocket 4.4 21:00:56 10° SSW 21:07:06 61° WNW 21:13:21 10° N
COSMOS 2428 3.5 21:09:20 10° NW 21:14:18 46° W 21:14:18 46° W
ATLAS CENTAUR R/B 4.3 21:16:06 10° NW 21:17:17 12° NNW 21:17:17 12° NNW
Nadezhda 3 Rocket 4.5 21:16:12 10° NNW 21:21:07 55° NW 21:21:07 55° NW
USA 229 DEB 4.1 21:21:42 10° NW 21:28:13 59° WSW 21:28:13 59° WSW
USA 229 4.1 21:21:48 10° NW 21:28:18 59° WSW 21:28:18 59° WSW
Cosmos 2237 Rocket 3.5 21:26:49 10° NNW 21:30:01 35° NNW 21:30:01 35° NNW
USA 215 3.8 21:43:00 52° NW 21:43:00 52° NW 21:47:57 10° WNW
NOSS 3-1 (A) 4.3 21:34:13 10° NW 21:40:03 60° NNW 21:40:03 60° NNW
ATLAS 2AS CENTAUR R/B 3.8 21:39:54 10° NW 21:46:47 42° NNE 21:46:47 42° NNE
Cosmos 2219 Rocket 4.0 21:51:21 10° NW 21:54:08 27° WNW 21:54:08 27° WNW
SL-16 R/B 4.2 21:56:38 10° NNW 21:58:36 22° NNW 21:58:36 22° NNW
Cosmos 2333 Rocket 4.2 22:05:25 10° NW 22:07:53 24° WNW 22:07:53 24° WNW
